HKMO

Moi International Airport

Airport
ICAO code
HKMO
IATA Code
MBA
Summary
ICAO Region
AFI
ICAO Territory
Location

Mombasa, Mombasa County

Serving
Mombasa
Elevation
200 ft
Coordinates
4° 1' 37" S , 39° 36' 5" E
KCC
Metar
HKMO 251400Z 21013KT 9999 FEW024 BKN080 26/19 Q1014 NOSIG

International airport serving Mombasa, Kenya.

Climatology

Tropical Savanna climate (Köppen climate classification As)

Runways

Designator Length Width Surface Rops
15/33 1363 36 ASP Yes/Yes
3/21 3350 46 ASP Yes/Yes

Airport map

Aerial View

SKYbrary Partners:

Safety knowledge contributed by: